WI1SKY Weather Reports


Display with metric or nautical units.
time (UTC)temp
F
wind
direction
speed
MPH
gust
MPH
rain 1hr
in
rain 24hr
in
rain mn
in
humidity
%
barometer
mb
20260502192716 64 252 5.0 10.0 0.00 0.00 0.00 33 1014.1
20260502191112 63 229 5.0 9.0 0.00 0.00 0.00 39 1014.5
20260502190805 64 289 5.0 10.0 0.00 0.00 0.00 37 1014.6
20260502190641 63 290 5.0 10.0 0.00 0.00 0.00 32 1014.5
20260502185608 64 211 5.0 12.0 0.00 0.00 0.00 33 1014.6
20260502185109 63 238 5.0 12.0 0.00 0.00 0.00 37 1014.7
20260502184609 63 286 5.0 9.0 0.00 0.00 0.00 35 1014.8
20260502184108 63 288 5.0 9.0 0.00 0.00 0.00 35 1014.9
20260502183608 64 300 6.0 11.0 0.00 0.00 0.00 38 1015.0
20260502183317 63 300 6.0 13.0 0.00 0.00 0.00 35 1015.0
20260502183133 64 313 6.0 11.0 0.00 0.00 0.00 34 1015.0
20260502182803 64 245 5.0 9.0 0.00 0.00 0.00 35 1014.9
20260502182501 63 294 6.0 13.0 0.00 0.00 0.00 37 1015.1
20260502182210 64 304 5.0 11.0 0.00 0.00 0.00 34 1015.0
20260502180605 62 285 7.0 11.0 0.00 0.00 0.00 35 1015.2
20260502180104 62 300 7.0 11.0 0.00 0.00 0.00 35 1015.3
20260502164104 58 292 7.0 14.0 0.00 0.00 0.00 38 1016.0
20260502163606 58 312 7.0 13.0 0.00 0.00 0.00 38 1016.1
20260502163101 58 311 7.0 12.0 0.00 0.00 0.00 39 1016.1
20260502162829 58 311 6.0 10.0 0.00 0.00 0.00 40 1016.3
20260502162639 58 297 7.0 12.0 0.00 0.00 0.00 42 1016.2
20260502161605 58 295 6.0 11.0 0.00 0.00 0.00 42 1016.4
20260502161101 58 291 8.0 11.0 0.00 0.00 0.00 39 1016.4
20260502160605 58 321 7.0 12.0 0.00 0.00 0.00 42 1016.4
20260502152101 58 292 5.0 10.0 0.00 0.00 0.00 42 1016.8
20260502151604 57 322 3.0 7.0 0.00 0.00 0.00 45 1016.8
20260502151100 57 286 3.0 5.0 0.00 0.00 0.00 46 1016.8
20260502150602 56 291 3.0 7.0 0.00 0.00 0.00 44 1016.9
20260502130541 44 140 1.0 2.0 0.00 0.00 0.00 67 1017.6
20260502130245 42 140 1.0 2.0 0.00 0.00 0.00 73 1017.7
20260502130115 43 140 1.0 2.0 0.00 0.00 0.00 70 1017.7
20260502122532 37 140 0.0 0.0 0.00 0.00 0.00 83 1017.7
20260502122032 36 140 0.0 0.0 0.00 0.00 0.00 83 1017.7
20260502121530 36 140 0.0 0.0 0.00 0.00 0.00 83 1017.7
20260502121033 36 140 0.0 0.0 0.00 0.00 0.00 84 1017.6
20260502120529 36 140 0.0 0.0 0.00 0.00 0.00 85 1017.6
20260502115532 35 140 0.0 0.0 0.00 0.00 0.00 85 1017.5
20260502115032 35 140 0.0 0.0 0.00 0.00 0.00 85 1017.5
20260502114533 35 140 0.0 0.0 0.00 0.00 0.00 84 1017.4
20260502114030 35 140 0.0 0.0 0.00 0.00 0.00 84 1017.4
20260502113735 35 140 0.0 0.0 0.00 0.00 0.00 85 1017.4
20260502113601 35 140 0.0 0.0 0.00 0.00 0.00 85 1017.4
20260502112529 35 140 0.0 0.0 0.00 0.00 0.00 84 1017.4
20260502112031 35 140 0.0 0.0 0.00 0.00 0.00 85 1017.4
20260502111532 35 140 0.0 0.0 0.00 0.00 0.00 85 1017.4
20260502111031 35 140 0.0 0.0 0.00 0.00 0.00 85 1017.4
20260502110532 35 140 0.0 0.0 0.00 0.00 0.00 84 1017.3
20260502110034 35 140 0.0 0.0 0.00 0.00 0.00 84 1017.3
20260502105531 35 140 0.0 0.0 0.00 0.00 0.00 84 1017.3
20260502105029 35 140 0.0 0.0 0.00 0.00 0.00 84 1017.4
20260502104531 34 140 0.0 0.0 0.00 0.00 0.00 84 1017.4
20260502104029 34 140 0.0 0.0 0.00 0.00 0.00 83 1017.4
20260502103531 34 140 0.0 0.0 0.00 0.00 0.00 83 1017.4
20260502103029 34 140 0.0 0.0 0.00 0.00 0.00 84 1017.5
20260502102644 34 140 0.0 0.0 0.00 0.00 0.00 85 1017.5
20260502102546 34 140 0.0 0.0 0.00 0.00 0.00 85 1017.4
20260502101528 34 140 0.0 0.0 0.00 0.00 0.00 85 1017.4
20260502101032 34 140 0.0 0.0 0.00 0.00 0.00 85 1017.4
20260502100529 34 140 0.0 0.0 0.00 0.00 0.00 84 1017.4
20260502100342 34 140 0.0 0.0 0.00 0.00 0.00 85 1017.4
20260502100124 34 140 0.0 0.0 0.00 0.00 0.00 85 1017.5
20260502091101 34 140 0.0 0.0 0.00 0.00 0.00 84 1017.5
20260502065513 35 140 0.0 0.0 0.00 0.00 0.00 76 1017.6
20260502065013 35 140 0.0 0.0 0.00 0.00 0.00 74 1017.7
20260502064515 36 140 0.0 0.0 0.00 0.00 0.00 74 1017.7
20260502064012 36 140 0.0 0.0 0.00 0.00 0.00 73 1017.7
20260502063509 36 140 0.0 0.0 0.00 0.00 0.00 72 1017.7
20260502063010 36 140 0.0 0.0 0.00 0.00 0.00 71 1017.7
20260502062508 36 140 0.0 0.0 0.00 0.00 0.00 72 1017.7
20260502062008 36 140 0.0 0.0 0.00 0.00 0.00 70 1017.7
20260502061506 36 140 0.0 0.0 0.00 0.00 0.00 70 1017.7
20260502061010 36 140 0.0 0.0 0.00 0.00 0.00 69 1017.6
20260502060652 36 140 0.0 0.0 0.00 0.00 0.00 69 1017.6
20260502060531 36 140 0.0 0.0 0.00 0.00 0.00 69 1017.6
20260502055502 36 140 0.0 0.0 0.00 0.00 0.00 69 1017.6
20260502055011 36 140 0.0 0.0 0.00 0.00 0.00 68 1017.6
20260502054507 37 140 0.0 0.0 0.00 0.00 0.00 68 1017.6
20260502054008 37 140 0.0 0.0 0.00 0.00 0.00 69 1017.5
20260502053859 37 140 0.0 0.0 0.00 0.00 0.00 69 1017.6
20260502053611 37 140 0.0 0.0 0.00 0.00 0.00 71 1017.6
20260502053032 37 140 0.0 0.0 0.00 0.00 0.00 70 1017.6
20260502052001 38 140 0.0 0.0 0.00 0.00 0.00 68 1017.6
20260502051848 38 140 0.0 0.0 0.00 0.00 0.00 65 1017.5
20260502051601 38 140 0.0 0.0 0.00 0.00 0.00 66 1017.6
20260502051029 38 140 0.0 0.0 0.00 0.00 0.00 66 1017.5
20260502050003 38 140 0.0 0.0 0.00 0.00 0.00 63 1017.5
20260502045506 39 140 0.0 0.0 0.00 0.00 0.00 63 1017.4
20260502045006 39 140 0.0 0.0 0.00 0.00 0.00 64 1017.4
20260502044506 39 140 0.0 0.0 0.00 0.00 0.00 64 1017.4
20260502044004 39 140 0.0 0.0 0.00 0.00 0.00 62 1017.4
20260502043502 40 140 0.0 0.0 0.00 0.00 0.00 62 1017.3
20260502043008 40 140 0.0 0.0 0.00 0.00 0.00 61 1017.3
20260502042506 40 140 0.0 0.0 0.00 0.00 0.00 60 1017.3
20260502042003 40 140 0.0 0.0 0.00 0.00 0.00 59 1017.3
20260502041502 40 140 0.0 0.0 0.00 0.00 0.00 59 1017.3
20260502041002 41 140 0.0 0.0 0.00 0.00 0.00 59 1017.3
20260502040626 41 140 0.0 0.0 0.00 0.00 0.00 57 1017.3
20260502040050 41 140 0.0 0.0 0.00 0.00 0.00 57 1017.3
20260502035535 42 140 0.0 0.0 0.00 0.00 0.00 55 1017.3
20260502035515 42 140 0.0 0.0 0.00 0.00 0.00 54 1017.3
20260502035504 41 140 0.0 0.0 0.00 0.00 0.00 57 1017.3
20260502035441 42 140 0.0 0.0 0.00 0.00 0.00 54 1017.2
20260502035133 42 140 0.0 0.0 0.00 0.00 0.00 56 1017.3
20260502032458 43 140 0.0 0.0 0.00 0.00 0.00 55 1017.3
20260502031956 43 140 0.0 0.0 0.00 0.00 0.00 54 1017.3
20260502031450 43 140 0.0 0.0 0.00 0.00 0.00 54 1017.3
20260502030955 43 140 0.0 2.0 0.00 0.00 0.00 54 1017.3
20260502030450 43 140 1.0 2.0 0.00 0.00 0.00 55 1017.3
20260502025954 43 140 1.0 2.0 0.00 0.00 0.00 54 1017.3
20260502025449 43 140 1.0 2.0 0.00 0.00 0.00 55 1017.2
20260502024956 43 140 1.0 2.0 0.00 0.00 0.00 52 1017.2
20260502024450 44 140 1.0 3.0 0.00 0.00 0.00 51 1017.2
20260502023950 45 140 0.0 3.0 0.00 0.00 0.00 48 1017.2
20260502023450 45 350 0.0 0.0 0.00 0.00 0.00 44 1017.2
20260502022951 45 350 0.0 0.0 0.00 0.00 0.00 44 1017.1
20260502022449 45 350 0.0 0.0 0.00 0.00 0.00 43 1017.0
20260502021954 45 350 0.0 0.0 0.00 0.00 0.00 43 1017.0
20260502021448 45 350 0.0 0.0 0.00 0.00 0.00 43 1017.0
20260502021133 46 350 0.0 0.0 0.00 0.00 0.00 42 1016.9
20260502021016 46 350 0.0 0.0 0.00 0.00 0.00 43 1017.0
20260502015942 46 350 0.0 0.0 0.00 0.00 0.00 43 1016.9
20260502015441 46 350 0.0 0.0 0.00 0.00 0.00 43 1016.8
20260502014946 46 350 0.0 0.0 0.00 0.00 0.00 44 1016.8
20260502014442 47 350 0.0 0.0 0.00 0.00 0.00 43 1016.8
20260502013940 47 350 0.0 0.0 0.00 0.00 0.00 42 1016.7
20260502013604 48 350 0.0 0.0 0.00 0.00 0.00 43 1016.6
20260502013504 47 350 0.0 0.0 0.00 0.00 0.00 43 1016.6
20260502012438 48 350 0.0 1.0 0.00 0.00 0.00 39 1016.6
20260502011938 48 350 0.0 2.0 0.00 0.00 0.00 41 1016.5
20260502011438 48 350 1.0 3.0 0.00 0.00 0.00 42 1016.5
20260502010935 49 350 2.0 3.0 0.00 0.00 0.00 43 1016.5
20260502010438 49 350 2.0 4.0 0.00 0.00 0.00 41 1016.4
20260502005937 49 350 2.0 4.0 0.00 0.00 0.00 41 1016.4
20260502005433 49 355 2.0 3.0 0.00 0.00 0.00 40 1016.4
20260502004933 49 355 2.0 4.0 0.00 0.00 0.00 41 1016.3
20260502004434 49 355 2.0 4.0 0.00 0.00 0.00 40 1016.3
20260502003939 49 9 3.0 5.0 0.00 0.00 0.00 41 1016.2
20260502003435 50 9 3.0 5.0 0.00 0.00 0.00 39 1016.2
20260502002933 50 5 3.0 5.0 0.00 0.00 0.00 38 1016.2
20260502002431 50 21 3.0 5.0 0.00 0.00 0.00 38 1016.2
20260502001932 50 5 4.0 7.0 0.00 0.00 0.00 37 1016.1
20260502001642 50 355 3.0 7.0 0.00 0.00 0.00 39 1016.0
20260502001506 50 5 4.0 7.0 0.00 0.00 0.00 38 1016.1
20260502000431 50 16 4.0 7.0 0.00 0.00 0.00 37 1016.0
20260501235932 51 16 5.0 9.0 0.00 0.00 0.00 38 1016.1
20260501235433 51 16 5.0 9.0 0.00 0.00 0.00 38 1016.1
20260501234934 51 21 3.0 8.0 0.00 0.00 0.00 39 1016.0
20260501234430 51 0 4.0 6.0 0.00 0.00 0.00 39 1015.9
20260501234400 51 343 5.0 8.0 0.00 0.00 0.00 37 1015.9
20260501234039 51 336 4.0 6.0 0.00 0.00 0.00 38 1015.9
20260501233501 51 340 4.0 8.0 0.00 0.00 0.00 39 1015.9
20260501232858 52 324 5.0 8.0 0.00 0.00 0.00 36 1015.9
20260501232853 52 331 5.0 8.0 0.00 0.00 0.00 38 1016.0
20260501232534 52 333 4.0 8.0 0.00 0.00 0.00 40 1015.9
20260501230932 52 315 5.0 8.0 0.00 0.00 0.00 37 1015.9
20260501230433 53 336 5.0 8.0 0.00 0.00 0.00 36 1015.8
20260501225929 53 315 5.0 9.0 0.00 0.00 0.00 37 1015.9
20260501225435 53 319 4.0 9.0 0.00 0.00 0.00 36 1015.7
20260501224929 53 333 4.0 7.0 0.00 0.00 0.00 36 1015.8
20260501224432 53 321 5.0 9.0 0.00 0.00 0.00 37 1015.8
20260501223931 53 312 6.0 9.0 0.00 0.00 0.00 36 1015.8
20260501223430 53 310 5.0 9.0 0.00 0.00 0.00 36 1015.8
20260501223159 53 339 4.0 9.0 0.00 0.00 0.00 35 1015.8
20260501223005 53 332 4.0 9.0 0.00 0.00 0.00 37 1015.8
20260501221930 53 331 6.0 10.0 0.00 0.00 0.00 35 1015.7
20260501221429 53 333 6.0 10.0 0.00 0.00 0.00 35 1015.7
20260501220941 53 355 6.0 11.0 0.00 0.00 0.00 36 1015.6
20260501220930 53 17 7.0 11.0 0.00 0.00 0.00 37 1015.7
20260501220549 53 343 6.0 11.0 0.00 0.00 0.00 36 1015.7
20260501220001 53 11 5.0 10.0 0.00 0.00 0.00 35 1015.6
20260501214932 53 23 6.0 11.0 0.00 0.00 0.00 34 1015.6
20260501214428 53 15 5.0 10.0 0.00 0.00 0.00 35 1015.6
20260501213933 53 30 7.0 11.0 0.00 0.00 0.00 36 1015.5
20260501213432 54 5 7.0 11.0 0.00 0.00 0.00 35 1015.6
20260501212931 54 355 7.0 12.0 0.00 0.00 0.00 36 1015.6
20260501212432 54 5 6.0 12.0 0.00 0.00 0.00 35 1015.6
20260501211930 54 311 5.0 12.0 0.00 0.00 0.00 35 1015.6
20260501211900 53 347 6.0 9.0 0.00 0.00 0.00 33 1015.6
20260501211848 53 19 6.0 9.0 0.00 0.00 0.00 34 1015.6
20260501211541 53 343 6.0 12.0 0.00 0.00 0.00 36 1015.6
20260501205929 54 5 6.0 10.0 0.00 0.00 0.00 34 1015.6
20260501205428 55 19 6.0 12.0 0.00 0.00 0.00 34 1015.7
20260501204930 56 335 7.0 12.0 0.00 0.00 0.00 35 1015.7
20260501204433 56 336 6.0 12.0 0.00 0.00 0.00 35 1015.7
20260501203929 55 329 7.0 12.0 0.00 0.00 0.00 37 1015.7
20260501203430 55 295 8.0 12.0 0.00 0.00 0.00 35 1015.7
20260501202947 53 325 6.0 10.0 0.00 0.00 0.00 38 1015.9
20260501202929 55 312 5.0 12.0 0.00 0.00 0.00 36 1015.6
20260501202549 54 305 4.0 9.0 0.00 0.00 0.00 37 1015.8
20260501202005 54 327 5.0 9.0 0.00 0.00 0.00 37 1015.7
20260501200930 53 15 5.0 10.0 0.00 0.00 0.00 39 1015.9
20260501200718 53 330 5.0 9.0 0.00 0.00 0.00 37 1015.9
20260501200508 53 328 4.0 9.0 0.00 0.00 0.00 37 1015.9
20260501195428 53 11 6.0 9.0 0.00 0.00 0.00 37 1015.8
20260501194931 53 325 6.0 10.0 0.00 0.00 0.00 39 1015.8
20260501194429 53 18 5.0 11.0 0.00 0.00 0.00 38 1015.8
20260501193933 54 321 5.0 11.0 0.00 0.00 0.00 36 1015.8
20260501193428 54 275 7.0 12.0 0.00 0.00 0.00 39 1015.7